Weather History for KPTW - August, 2013

Change the Weather History Date:

Wednesday, August 7, 2013

  Actual Average (KRDG) Record (KRDG)
Temperature  
Mean Temperature 68 °F 74 °F  
Max Temperature 73 °F 84 °F 105 °F (1918)
Min Temperature 64 °F 64 °F 50 °F (1994)
Degree Days  
Heating Degree Days 0 0  
Month to date heating degree days 0  
Since 1 June heating degree days 25  
Since 1 July heating degree days 1  
Cooling Degree Days 4 9  
Month to date cooling degree days 63  
Year to date cooling degree days 615  
Since 1 June cooling degree days 555  
Growing Degree Days 18 (Base 50)    
Moisture  
Dew Point 67 °F    
Average Humidity 88    
Maximum Humidity 97    
Minimum Humidity 78    
Precipitation  
Precipitation 0.04 in 0.11 in 3.94 in (1932)
Month to date precipitation 0.82  
Year to date precipitation 26.14  
Sea Level Pressure  
Sea Level Pressure 30.09 in    
Wind  
Wind Speed 1 mph (SSE)    
Max Wind Speed 6 mph    
Max Gust Speed -    
Visibility 10 miles    
Events Rain    
T = Trace of Precipitation, MM = Missing Value Source: NWS Daily Summary

Daily Weather History Graph

Daily Weather History Graph

Search for Another Location

Airport or City:

Trip Planner

Search our weather history database for the weather conditions in past years. The results will help you decide how hot, cold, wet, or windy it might be!

Date:

Astronomy

Aug. 07, 2013 Rise Set
Actual Time 6:05 AM EDT 8:09 PM EDT
Civil Twilight 5:36 AM EDT 8:39 PM EDT
Nautical Twilight 4:59 AM EDT 9:15 PM EDT
Astronomical Twilight 4:19 AM EDT 9:54 PM EDT
Moon 6:52 AM EDT (8/7) 8:15 PM EDT (8/7)
Length of Visible Light 15h 03m
Length of Day
14h 03m
New Moon, 1% of the Moon is Illuminated
Aug 7
New Moon
Aug 14
First Quarter
Aug 20
Full
Aug 28
Last Quarter
Sep 5
New

Hourly Weather History & Observations

Time (EDT) Temp. Dew Point Humidity Pressure Visibility Wind Dir Wind Speed Gust Speed Precip Events Conditions
12:54 AM 64.9 °F 64.0 °F 97% 30.11 in 10.0 mi Calm Calm - 0.02 in   Mostly Cloudy
1:21 AM 66.2 °F 64.4 °F 94% 30.13 in 10.0 mi Calm Calm - N/A   Overcast
1:54 AM 66.0 °F 64.9 °F 96% 30.11 in 9.0 mi Calm Calm - N/A   Overcast
2:40 AM 66.2 °F 64.4 °F 94% 30.12 in 10.0 mi Calm Calm - N/A   Overcast
2:52 AM 66.2 °F 64.4 °F 94% 30.13 in 10.0 mi Calm Calm - N/A   Overcast
2:54 AM 66.9 °F 64.9 °F 93% 30.12 in 10.0 mi Calm Calm - N/A   Overcast
3:54 AM 66.9 °F 64.9 °F 93% 30.12 in 10.0 mi Calm Calm - N/A   Overcast
4:54 AM 66.9 °F 64.9 °F 93% 30.12 in 10.0 mi Calm Calm - N/A   Overcast
5:54 AM 66.9 °F 64.9 °F 93% 30.12 in 10.0 mi Calm Calm - N/A   Overcast
6:54 AM 66.9 °F 64.9 °F 93% 30.12 in 9.0 mi Calm Calm - N/A   Overcast
7:54 AM 68.0 °F 64.9 °F 90% 30.12 in 10.0 mi Calm Calm - N/A   Overcast
8:54 AM 69.1 °F 64.9 °F 87% 30.12 in 10.0 mi Calm Calm - N/A   Overcast
9:54 AM 71.1 °F 64.0 °F 78% 30.12 in 10.0 mi Variable 3.5 mph - N/A   Overcast
10:54 AM 71.1 °F 64.9 °F 81% 30.11 in 10.0 mi Variable 4.6 mph - N/A   Overcast
11:54 AM 73.0 °F 66.0 °F 79% 30.11 in 10.0 mi Variable 4.6 mph - N/A   Overcast
12:54 PM 73.0 °F 66.0 °F 79% 30.11 in 10.0 mi South 3.5 mph - N/A   Overcast
1:54 PM 72.0 °F 68.0 °F 87% 30.11 in 9.0 mi South 4.6 mph - 0.00 in Rain Light Rain
2:46 PM 71.6 °F 68.0 °F 88% 30.11 in 9.0 mi South 3.5 mph - 0.00 in   Overcast
2:54 PM 73.0 °F 68.0 °F 84% 30.10 in 10.0 mi Variable 5.8 mph - 0.00 in   Overcast
3:54 PM 73.0 °F 68.0 °F 84% 30.08 in 10.0 mi SSE 3.5 mph - N/A   Overcast
4:20 PM 73.4 °F 68.0 °F 83% 30.09 in 10.0 mi Variable 4.6 mph - N/A   Overcast
4:34 PM 73.4 °F 68.0 °F 83% 30.09 in 10.0 mi Variable 4.6 mph - N/A   Overcast
4:54 PM 73.0 °F 68.0 °F 84% 30.07 in 10.0 mi Calm Calm - 0.00 in   Overcast
5:01 PM 73.4 °F 68.0 °F 83% 30.08 in 10.0 mi SSE 3.5 mph - N/A   Overcast
5:54 PM 73.9 °F 68.0 °F 82% 30.06 in 10.0 mi South 4.6 mph - N/A   Overcast
6:54 PM 73.0 °F 68.0 °F 84% 30.06 in 10.0 mi Calm Calm - N/A   Overcast
7:29 PM 73.4 °F 69.8 °F 88% 30.06 in 10.0 mi Calm Calm - N/A   Overcast
7:54 PM 73.0 °F 69.1 °F 87% 30.05 in 10.0 mi Variable 3.5 mph - N/A   Overcast
8:54 PM 73.0 °F 69.1 °F 87% 30.06 in 10.0 mi Calm Calm - N/A   Overcast
9:21 PM 73.4 °F 69.8 °F 88% 30.07 in 10.0 mi Calm Calm - N/A   Overcast
9:54 PM 73.0 °F 69.1 °F 87% 30.06 in 10.0 mi SSE 3.5 mph - N/A   Mostly Cloudy
10:37 PM 73.4 °F 69.8 °F 88% 30.07 in 10.0 mi Variable 3.5 mph - N/A   Mostly Cloudy
10:54 PM 72.0 °F 69.1 °F 91% 30.06 in 10.0 mi Calm Calm - 0.00 in Rain Light Rain
11:08 PM 71.6 °F 69.8 °F 94% 30.07 in 10.0 mi Calm Calm - 0.01 in Rain Light Rain
11:32 PM 71.6 °F 69.8 °F 94% 30.08 in 10.0 mi Calm Calm - 0.02 in Rain Light Rain
11:49 PM 71.6 °F 69.8 °F 94% 30.08 in 10.0 mi Calm Calm - 0.02 in Rain Light Rain
11:54 PM 71.1 °F 70.0 °F 96% 30.06 in 10.0 mi Calm Calm - 0.02 in Rain Light Rain